Flag for U.S.A. Weather past 2 weeks in Sidney, Montana, U.S.A.

Now
57 °F

Mostly cloudy.


Feels Like: 54 °F
Forecast: 43 / 64 °F
Wind: 14 mph from Southeast

Location: Sidney-Richland

Current Time: Apr 25, 2015 at 12:35:04 PM

Latest Report: Apr 25, 2015 at 11:55 AM


Visibility: 10 mi

Pressure: 29.72 "Hg

Humidity: 59%

Dew point: 43 °F

Location of SidneyLocation

Historic Weather in Sidney — Graph

°F

Sidney temperature yesterday

Maximum temperature yesterday: 73 °F (at 3:35 PM)
Minimum temperature yesterday: 28 °F (at 5:55 AM)
Average temperature yesterday: 50 °F

Past Weeks' High & Low Weather Summary

 TemperatureHumidityPressure
High81 °F (Apr 14, 4:15 PM)93% (Apr 22, 6:15 AM)30.25 "Hg (Apr 22, 6:15 AM)
Low19 °F (Apr 22, 4:55 AM)14% (Apr 16, 5:15 PM)29.44 "Hg (Apr 15, 12:15 AM)
Average49 °F42%29.89 "Hg
* Reported Apr 10 11:15 AM — Apr 25 11:35 AM, Sidney, Weather by CustomWeather, © 2015

Note: Actual official high and low records may vary slightly from our data, if they occured in-between our weather recording intervals... More about our weather records

Advertising

Sidney weather history for previous 24 hours

 ConditionsComfort  
Time TempWeatherWind HumidityBarometerVisibility
11:35 AM
Sat, Apr 25
57 °FPartly sunny.13 mph59%29.71 "Hg10 mi
11:15 AM57 °FPassing clouds.14 mph59%29.71 "Hg10 mi
10:55 AM57 °FScattered clouds.15 mph59%29.71 "Hg10 mi
10:35 AM55 °FPassing clouds.12 mph63%29.71 "Hg10 mi
10:15 AM55 °FPassing clouds.14 mph63%29.70 "Hg10 mi
9:55 AM54 °FPartly sunny.15 mph63%29.71 "Hg10 mi
9:35 AM54 °FOvercast.12 mph63%29.71 "Hg10 mi
9:15 AM54 °FOvercast.10 mph63%29.71 "Hg10 mi
8:55 AM52 °FPartly sunny.10 mph67%29.71 "Hg10 mi
8:35 AM52 °FPassing clouds.10 mph67%29.70 "Hg10 mi
8:15 AM48 °FScattered clouds.12 mph71%29.70 "Hg10 mi
7:55 AM48 °FOvercast.9 mph76%29.71 "Hg10 mi
7:35 AM48 °FPartly sunny.10 mph71%29.71 "Hg9 mi
7:15 AM48 °FPassing clouds.9 mph71%29.71 "Hg10 mi
6:55 AM48 °FSunny.9 mph71%29.71 "Hg10 mi
6:35 AM48 °FClear.7 mph71%29.71 "Hg10 mi
6:15 AM48 °FClear.9 mph71%29.70 "Hg10 mi
5:55 AM48 °FPassing clouds.8 mph71%29.69 "Hg10 mi
5:35 AM48 °FPassing clouds.8 mph71%29.69 "Hg10 mi
5:15 AM48 °FClear.9 mph71%29.69 "Hg10 mi
4:55 AM48 °FPassing clouds.8 mph71%29.69 "Hg10 mi
4:35 AM48 °FPassing clouds.No wind66%29.68 "Hg10 mi
4:15 AM50 °FPassing clouds.No wind62%29.67 "Hg10 mi
3:55 AM50 °FClear.No wind62%29.67 "Hg10 mi
3:35 AM50 °FPassing clouds.No wind62%29.67 "Hg10 mi
3:15 AM48 °FPassing clouds.No wind62%29.66 "Hg10 mi
2:55 AM52 °FPassing clouds.No wind58%29.66 "Hg10 mi
2:35 AM48 °FPassing clouds.No wind62%29.65 "Hg10 mi
2:15 AM48 °FPassing clouds.No wind58%29.65 "Hg10 mi
1:55 AM48 °FClear.No wind58%29.64 "Hg10 mi
1:35 AM52 °FClear.No wind54%29.64 "Hg10 mi
1:15 AM52 °FClear.No wind50%29.65 "Hg10 mi
12:55 AM54 °FClear.No wind47%29.65 "Hg10 mi
12:35 AM54 °FClear.No wind47%29.64 "Hg10 mi
12:15 AM55 °FClear.No wind44%29.64 "Hg10 mi
11:55 PM
Fri, Apr 24
55 °FClear.No wind44%29.64 "Hg10 mi
11:35 PM55 °FPassing clouds.No wind44%29.64 "Hg10 mi
11:15 PM54 °FClear.No wind47%29.64 "Hg10 mi
10:55 PM55 °FClear.No wind44%29.63 "Hg10 mi
10:35 PM55 °FPassing clouds.No wind47%29.63 "Hg10 mi
10:15 PM55 °FPassing clouds.No wind47%29.63 "Hg10 mi
9:35 PM55 °FPassing clouds.No wind55%29.63 "Hg10 mi
9:15 PM57 °FPassing clouds.No wind51%29.63 "Hg10 mi
8:55 PM55 °FPartly sunny.No wind55%29.62 "Hg10 mi
8:35 PM57 °FScattered clouds.No wind51%29.61 "Hg10 mi
8:15 PM61 °FSunny.No wind45%29.60 "Hg10 mi
7:55 PM63 °FSunny.No wind39%29.60 "Hg10 mi
6:55 PM66 °FBroken clouds.No wind35%29.59 "Hg10 mi
6:35 PM70 °FScattered clouds.No wind27%29.58 "Hg10 mi
5:35 PM72 °FScattered clouds.7 mph25%29.57 "Hg10 mi
5:15 PM72 °FScattered clouds.7 mph25%29.57 "Hg10 mi
4:55 PM72 °FSunny.8 mph25%29.57 "Hg10 mi
4:35 PM70 °FSunny.No wind27%29.57 "Hg10 mi
4:15 PM72 °FSunny.No wind25%29.57 "Hg10 mi
3:35 PM73 °FSunny.9 mph23%29.58 "Hg10 mi
3:15 PM72 °FSunny.8 mph25%29.58 "Hg10 mi
2:55 PM70 °FSunny.No wind25%29.59 "Hg10 mi
2:35 PM70 °FSunny.6 mph25%29.59 "Hg10 mi
2:15 PM70 °FSunny.8 mph23%29.60 "Hg10 mi
1:55 PM68 °FSunny.7 mph24%29.60 "Hg10 mi
1:35 PM68 °FSunny.6 mph24%29.61 "Hg10 mi
1:15 PM70 °FSunny.5 mph23%29.61 "Hg10 mi
12:55 PM66 °FSunny.5 mph26%29.61 "Hg10 mi
12:35 PM64 °FSunny.6 mph28%29.62 "Hg10 mi
12:15 PM64 °FSunny.No wind30%29.63 "Hg10 mi
Weather by CustomWeather, © 2015

See weather overviewHow to use our weather pages